[[{"header":{"parameterUnit":"m.s-1","parameterCategory":1,"la1":30.2991,"la2":30.254,"lo1":-89.0895,"lo2":-89.0444,"dy":0.0017,"dx":0.0017,"nx":28,"ny":28,"refTime":"2025-09-03T03:00:00:Z","depth":0,"parameterNumber":2,"parameterNumberName":"U-component_of_WINDS"},"data":[0,0,0,0,0,0,0,0,0,0,0,0,0,0,0,0,0,0,0,0,0,0,0,0,0,0,0,0,0,0,0,0,0,0,0,0,0,0,0,0,0,0,0,0,0,0,0,0,0,0,0,0,0,0,0,0,0,0,-0.6789,-0.6789,0,-0.6779,-0.6779,-0.6779,-0.6711,-0.671,-0.6708,-0.6706,-0.6699,-0.6701,-0.6702,0,0,0,0,0,0,0,0,0,0,0,0,0,-0.6752,-0.6753,-0.6789,-0.6789,-0.6789,-0.6779,-0.6779,-0.6779,-0.6711,-0.6709,-0.6707,-0.6706,-0.6699,-0.67,-0.6702,0,0,0,0,0,0,0,0,0,0,0,0,0,-0.6758,-0.6753,-0.6789,-0.6754,-0.6751,-0.6779,-0.6779,-0.6779,-0.6712,-0.6709,-0.6707,-0.6705,-0.6698,-0.67,-0.6702,-0.6765,0,0,-0.6709,-0.6709,0,0,0,0,0,0,0,0,-0.6758,-0.6759,-0.6759,-0.6757,-0.6753,-0.6744,-0.6763,-0.6774,-0.6713,-0.6727,-0.6706,-0.6703,-0.6716,-0.6717,-0.672,-0.6764,-0.6764,-0.6709,-0.671,-0.6711,-0.6711,0,0,0,0,0,0,0,-0.6757,-0.6759,-0.6785,-0.676,-0.6756,-0.6739,-0.6737,-0.6765,-0.6736,-0.6725,-0.672,-0.672,-0.6714,-0.6719,-0.672,-0.6764,-0.6709,-0.6711,-0.6712,-0.6713,-0.6856,-0.6859,0,0,0,0,0,0,-0.6761,-0.6759,-0.6786,-0.6785,-0.6749,-0.6742,-0.674,-0.6749,-0.6735,-0.6731,-0.6722,-0.6717,-0.6716,-0.6717,-0.6719,-0.679,-0.6711,-0.6713,-0.6714,-0.6854,-0.6857,-0.686,0,0,0,0,0,0,-0.6761,-0.6764,-0.6786,-0.6771,-0.6772,-0.6745,-0.6756,-0.675,-0.6755,-0.6733,-0.6727,-0.6732,-0.6714,-0.6716,-0.6753,-0.6789,-0.6714,-0.6716,-0.6851,-0.6855,-0.6858,-0.6933,0,0,0,0,0,0,-0.676,-0.6765,-0.6788,-0.6772,-0.6773,-0.682,-0.6759,-0.6752,-0.6758,-0.6751,-0.6741,-0.6736,-0.6713,-0.6751,-0.6755,-0.679,-0.6717,-0.6848,-0.6853,-0.6857,-0.6928,-0.6939,-0.6949,0,0,0,0,0,-0.6759,-0.6811,-0.6789,-0.6793,-0.6802,-0.6822,-0.6823,-0.6794,-0.6761,-0.6784,-0.677,-0.6737,-0.6784,-0.6755,-0.676,-0.6796,-0.6845,-0.6851,-0.6857,-0.6923,-0.6937,-0.6949,0,0,0,0,0,0,-0.6834,-0.6808,-0.6784,-0.6832,-0.683,-0.6811,-0.6839,-0.681,-0.6818,-0.6811,-0.6775,-0.6774,-0.6816,-0.6809,-0.6777,-0.6854,-0.6809,-0.6816,-0.6857,-0.6871,-0.6881,-0.6882,-0.6719,0,0,0,0,0,-0.6855,-0.6873,-0.685,-0.6895,-0.6894,-0.6867,-0.6875,-0.6852,-0.6849,-0.6848,-0.6836,-0.6835,-0.6849,-0.6859,-0.6872,-0.6926,-0.6922,-0.6953,-0.6964,-0.6973,-0.698,-0.7007,-0.702,-0.6879,-0.6879,-0.6879,0,0,-0.6901,-0.6889,-0.6903,-0.6909,-0.6905,-0.6924,-0.6867,-0.6891,-0.6905,-0.6852,-0.6885,-0.6876,-0.6872,-0.6918,-0.6937,-0.6914,-0.7018,-0.6981,-0.6988,-0.699,-0.7014,-0.7027,-0.7039,-0.6883,-0.6882,-0.6882,0,0,-0.6994,-0.6987,-0.7022,-0.7018,-0.7011,-0.6992,-0.7001,-0.6986,-0.6977,-0.701,-0.697,-0.6987,-0.7012,-0.7011,-0.7013,-0.7103,-0.7072,-0.7108,-0.7165,-0.7192,-0.7203,-0.7213,-0.7244,-0.7256,-0.7115,-0.7115,-0.7115,0,-0.7052,-0.7079,-0.7045,-0.707,-0.7074,-0.7024,-0.706,-0.7058,-0.7056,-0.706,-0.7033,-0.7063,-0.7057,-0.71,-0.7122,-0.7126,-0.7134,-0.7109,-0.7204,-0.7213,-0.7222,-0.7251,-0.7263,-0.7119,-0.7119,-0.7118,-0.7118,0,-0.7151,-0.717,-0.7199,-0.7197,-0.7203,-0.7234,-0.7204,-0.7215,-0.7191,-0.7175,-0.7208,-0.7199,-0.7207,-0.7216,-0.7194,-0.7256,-0.7242,-0.721,-0.7164,-0.724,-0.7267,-0.7278,-0.7125,-0.7124,-0.7122,-0.7121,0,0,-0.7293,-0.7268,-0.7279,-0.7276,-0.7264,-0.7279,-0.7306,-0.7313,-0.7323,-0.7323,-0.7345,-0.7367,-0.7336,-0.7339,-0.7316,-0.734,-0.741,-0.7305,-0.7304,-0.7325,-0.7477,-0.7501,-0.7515,-0.7389,-0.7391,-0.7393,-0.7477,0,-0.7381,-0.7426,-0.7395,-0.7446,-0.7462,-0.7415,-0.7439,-0.7434,-0.7419,-0.7432,-0.7415,-0.7431,-0.7391,-0.7392,-0.7413,-0.7397,-0.744,-0.7391,-0.741,-0.7411,-0.7413,-0.7529,-0.7555,-0.7635,-0.7488,-0.749,-0.7491,0,-0.7491,-0.7494,-0.7546,-0.7527,-0.7533,-0.7556,-0.7558,-0.7571,-0.7564,-0.7551,-0.7553,-0.7523,-0.7549,-0.7503,-0.7538,-0.7505,-0.751,-0.7504,-0.7506,-0.7507,-0.7456,-0.7533,-0.766,-0.7672,-0.7507,-0.7506,-0.7505,0,-0.7589,-0.7605,-0.7637,-0.7637,-0.7617,-0.7633,-0.7626,-0.7616,-0.7622,-0.7624,-0.7627,-0.7633,-0.7637,-0.7642,-0.7614,-0.7583,-0.7653,-0.7604,-0.7643,-0.7644,-0.7661,-0.7661,-0.7791,-0.7665,-0.7665,-0.7664,-0.7664,0,-0.7691,-0.7725,-0.7681,-0.7701,-0.7737,-0.77,-0.7737,-0.7724,-0.7716,-0.7733,-0.7692,-0.7709,-0.7671,-0.7684,-0.7663,-0.7695,-0.7697,-0.7688,-0.7682,-0.7692,-0.7693,-0.7695,-0.7689,-0.7668,-0.7667,-0.7666,-0.7666,0,-0.7807,-0.7779,-0.7811,-0.7788,-0.7783,-0.7811,-0.7791,-0.7809,-0.779,-0.7813,-0.7816,-0.7787,-0.78,-0.7773,-0.7783,-0.7768,-0.7813,-0.7798,-0.7815,-0.7811,-0.7851,-0.7848,-0.7988,-0.8005,-0.7868,-0.787,-0.7871,0,-0.7874,-0.7899,-0.7878,-0.7885,-0.788,-0.7893,-0.7897,-0.7862,-0.7868,-0.786,-0.7879,-0.7888,-0.7894,-0.7917,-0.7898,-0.7905,-0.789,-0.7938,-0.7891,-0.7899,-0.789,-0.7889,-0.7891,-0.7949,-0.795,-0.7952,-0.7953,0,-0.7997,-0.7981,-0.7988,-0.7991,-0.7996,-0.7997,-0.7995,-0.8003,-0.7965,-0.7974,-0.7986,-0.799,-0.7999,-0.8009,-0.8011,-0.8004,-0.7972,-0.7968,-0.7977,-0.7988,-0.7996,-0.7992,-0.7842,-0.7965,-0.7964,-0.7963,-0.7962,-0.7962,-0.809,-0.8109,-0.8096,-0.8106,-0.8099,-0.8097,-0.8112,-0.8095,-0.8104,-0.8107,-0.8085,-0.8102,-0.8092,-0.8091,-0.8087,-0.81,-0.8078,-0.8092,-0.8095,-0.81,-0.8106,-0.7994,-0.81,-0.81,-0.8099,-0.8099,-0.8099,0,-0.821,-0.8199,-0.8208,-0.8204,-0.8211,-0.8179,-0.8174,-0.8182,-0.8197,-0.819,-0.8196,-0.8209,-0.8217,-0.8198,-0.8203,-0.8217,-0.8203,-0.822,-0.8219,-0.8217,-0.8125,-0.8116,-0.8231,-0.8231,-0.8231,-0.8231,-0.8231,-0.8231,-0.8274,-0.8303,-0.8285,-0.8311,-0.83,-0.8314,-0.8314,-0.8312,-0.8306,-0.8322,-0.8328,-0.8315,-0.8303,-0.8307,-0.8313,-0.8307,-0.8311,-0.8333,-0.8322,-0.8237,-0.8224,-0.8212,-0.8203,-0.8334,-0.8334,-0.8413,-0.8414,-0.8414]},{"header":{"parameterUnit":"m.s-1","parameterCategory":1,"la1":30.2991,"la2":30.254,"lo1":-89.0895,"lo2":-89.0444,"dy":0.0017,"dx":0.0017,"nx":28,"ny":28,"refTime":"2025-09-03T03:00:00:Z","depth":0,"parameterNumber":3,"parameterNumberName":"V-component_of_WINDS"},"data":[0,0,0,0,0,0,0,0,0,0,0,0,0,0,0,0,0,0,0,0,0,0,0,0,0,0,0,0,0,0,0,0,0,0,0,0,0,0,0,0,0,0,0,0,0,0,0,0,0,0,0,0,0,0,0,0,0,0,-1.4569,-1.457,0,-1.471,-1.4711,-1.4713,-1.4781,-1.4781,-1.4781,-1.4781,-1.4925,-1.4929,-1.4932,0,0,0,0,0,0,0,0,0,0,0,0,0,-1.4358,-1.4361,-1.4569,-1.4571,-1.4572,-1.471,-1.4712,-1.4713,-1.4781,-1.4781,-1.4781,-1.4781,-1.4924,-1.4928,-1.4933,0,0,0,0,0,0,0,0,0,0,0,0,0,-1.4469,-1.4363,-1.4569,-1.4623,-1.4629,-1.4709,-1.4712,-1.4714,-1.4781,-1.4781,-1.4781,-1.4781,-1.4922,-1.4928,-1.4933,-1.497,0,0,-1.4951,-1.4954,0,0,0,0,0,0,0,0,-1.4463,-1.4477,-1.4613,-1.4619,-1.4626,-1.4728,-1.469,-1.48,-1.4781,-1.4723,-1.4781,-1.4781,-1.4859,-1.487,-1.4897,-1.4977,-1.4983,-1.4952,-1.4955,-1.4958,-1.4959,0,0,0,0,0,0,0,-1.4455,-1.4471,-1.4625,-1.4615,-1.4623,-1.464,-1.4656,-1.4711,-1.479,-1.4729,-1.4734,-1.475,-1.4863,-1.4891,-1.4901,-1.4985,-1.4951,-1.4957,-1.496,-1.4962,-1.5103,-1.5103,0,0,0,0,0,0,-1.4439,-1.4464,-1.462,-1.4629,-1.4543,-1.4644,-1.4661,-1.4695,-1.479,-1.4804,-1.4749,-1.4752,-1.4881,-1.4894,-1.4906,-1.4956,-1.4957,-1.4963,-1.4966,-1.5102,-1.5103,-1.5103,0,0,0,0,0,0,-1.4434,-1.4452,-1.4614,-1.4548,-1.457,-1.4647,-1.4685,-1.4698,-1.4726,-1.4805,-1.482,-1.4764,-1.4882,-1.4898,-1.4954,-1.4961,-1.4965,-1.4971,-1.5102,-1.5102,-1.5103,-1.5054,0,0,0,0,0,0,-1.4427,-1.445,-1.4465,-1.4548,-1.4573,-1.466,-1.4686,-1.4701,-1.4736,-1.4741,-1.4823,-1.4836,-1.4883,-1.4945,-1.4959,-1.4969,-1.4975,-1.5102,-1.5102,-1.5103,-1.5056,-1.5053,-1.5051,0,0,0,0,0,-1.442,-1.4445,-1.4465,-1.4483,-1.4594,-1.466,-1.4675,-1.4728,-1.4737,-1.4752,-1.4803,-1.4833,-1.4958,-1.495,-1.4967,-1.4979,-1.5101,-1.5102,-1.5103,-1.5057,-1.5054,-1.5051,0,0,0,0,0,0,-1.436,-1.4457,-1.448,-1.4533,-1.4588,-1.4672,-1.4693,-1.4723,-1.4777,-1.4779,-1.4843,-1.4861,-1.4911,-1.4951,-1.494,-1.502,-1.5033,-1.5037,-1.4992,-1.499,-1.4987,-1.4977,-1.498,0,0,0,0,0,-1.4353,-1.44,-1.4482,-1.4521,-1.4547,-1.4615,-1.4646,-1.4682,-1.4742,-1.4765,-1.482,-1.4876,-1.4928,-1.4961,-1.5013,-1.5062,-1.508,-1.5078,-1.5076,-1.5073,-1.5076,-1.5105,-1.5105,-1.5105,-1.5105,-1.5105,0,0,-1.434,-1.4398,-1.4423,-1.451,-1.4557,-1.4603,-1.4634,-1.4682,-1.4717,-1.4772,-1.4829,-1.4871,-1.4938,-1.499,-1.5016,-1.5025,-1.5081,-1.5074,-1.5072,-1.5076,-1.5106,-1.5106,-1.5106,-1.5105,-1.5105,-1.5105,0,0,-1.4339,-1.4387,-1.4425,-1.4472,-1.4542,-1.4587,-1.4596,-1.4675,-1.4705,-1.4763,-1.4806,-1.4848,-1.4936,-1.4982,-1.5017,-1.5033,-1.5063,-1.5048,-1.5036,-1.5063,-1.5064,-1.5064,-1.507,-1.5071,-1.5051,-1.5051,-1.5051,0,-1.4312,-1.4384,-1.4441,-1.4487,-1.4523,-1.4576,-1.4615,-1.4657,-1.4741,-1.4765,-1.4773,-1.4885,-1.4934,-1.4998,-1.5002,-1.5028,-1.5041,-1.504,-1.5059,-1.506,-1.5061,-1.5068,-1.507,-1.5048,-1.5049,-1.5049,-1.5049,0,-1.4349,-1.4398,-1.442,-1.45,-1.4539,-1.4581,-1.4644,-1.4677,-1.471,-1.4754,-1.4812,-1.4872,-1.4938,-1.4956,-1.4988,-1.5025,-1.5028,-1.5047,-1.5061,-1.5058,-1.5065,-1.5068,-1.5045,-1.5046,-1.5047,-1.5047,0,0,-1.4315,-1.4425,-1.4432,-1.4469,-1.4551,-1.459,-1.4634,-1.4698,-1.4726,-1.4781,-1.482,-1.4893,-1.4912,-1.4951,-1.4989,-1.5013,-1.5023,-1.503,-1.5032,-1.5027,-1.5067,-1.5052,-1.5054,-1.5043,-1.5044,-1.5044,-1.5061,0,-1.4325,-1.4407,-1.4459,-1.452,-1.4567,-1.4617,-1.4656,-1.471,-1.4752,-1.4797,-1.4844,-1.4895,-1.4915,-1.4939,-1.4965,-1.5016,-1.5032,-1.5015,-1.508,-1.5082,-1.5062,-1.5058,-1.5043,-1.5056,-1.5065,-1.5065,-1.5065,0,-1.4348,-1.4403,-1.4469,-1.4545,-1.4567,-1.46,-1.4664,-1.4706,-1.4769,-1.4798,-1.4842,-1.4881,-1.4929,-1.4939,-1.5008,-1.4995,-1.5025,-1.5053,-1.5055,-1.5064,-1.5073,-1.5067,-1.5062,-1.5064,-1.507,-1.507,-1.507,0,-1.4317,-1.4407,-1.4458,-1.4488,-1.4579,-1.4601,-1.464,-1.4703,-1.4738,-1.4793,-1.4817,-1.4876,-1.4909,-1.4955,-1.5009,-1.5011,-1.5071,-1.5086,-1.5097,-1.5096,-1.5108,-1.5107,-1.5108,-1.5126,-1.5126,-1.5126,-1.5126,0,-1.4323,-1.4361,-1.4445,-1.4477,-1.4521,-1.4581,-1.4623,-1.4666,-1.4721,-1.4762,-1.4809,-1.4846,-1.4915,-1.4961,-1.5003,-1.5053,-1.5068,-1.5093,-1.5103,-1.5089,-1.5085,-1.5109,-1.511,-1.5126,-1.5126,-1.5126,-1.5126,0,-1.4296,-1.4354,-1.4413,-1.4494,-1.4515,-1.4544,-1.4614,-1.4646,-1.4691,-1.4742,-1.4757,-1.4827,-1.4884,-1.4942,-1.5018,-1.5046,-1.5095,-1.511,-1.5074,-1.508,-1.5089,-1.5087,-1.5106,-1.5111,-1.5124,-1.5124,-1.5124,0,-1.4296,-1.4327,-1.4411,-1.4442,-1.448,-1.4529,-1.4565,-1.4625,-1.4661,-1.4734,-1.4758,-1.4818,-1.4869,-1.4956,-1.5014,-1.5072,-1.5089,-1.5092,-1.5098,-1.5082,-1.509,-1.5087,-1.5091,-1.5089,-1.5089,-1.5088,-1.5088,0,-1.4291,-1.4318,-1.4369,-1.443,-1.4472,-1.4522,-1.4575,-1.4597,-1.4667,-1.4705,-1.4764,-1.4803,-1.4881,-1.494,-1.5005,-1.5045,-1.5078,-1.5086,-1.5091,-1.5077,-1.5055,-1.5067,-1.5068,-1.5085,-1.5085,-1.5086,-1.5086,-1.5086,-1.4278,-1.4308,-1.4372,-1.4427,-1.4473,-1.4521,-1.4555,-1.4605,-1.4654,-1.4722,-1.4755,-1.4813,-1.4875,-1.4966,-1.5005,-1.5052,-1.5061,-1.507,-1.5072,-1.5073,-1.507,-1.5047,-1.5064,-1.5064,-1.5064,-1.5064,-1.5065,0,-1.4276,-1.4319,-1.4369,-1.4441,-1.4485,-1.4512,-1.4572,-1.4606,-1.4657,-1.4712,-1.4761,-1.4828,-1.4886,-1.4948,-1.5009,-1.5034,-1.5051,-1.5048,-1.5047,-1.5056,-1.5057,-1.5047,-1.5034,-1.5034,-1.5034,-1.5034,-1.5034,-1.5034,-1.4279,-1.4331,-1.4366,-1.4441,-1.4485,-1.4543,-1.4574,-1.4619,-1.4663,-1.4736,-1.4784,-1.4824,-1.4882,-1.4948,-1.5002,-1.5019,-1.5039,-1.5032,-1.5053,-1.5054,-1.5056,-1.5058,-1.5048,-1.5036,-1.5036,-1.5049,-1.5049,-1.5049]}]]